When you browse on this site, cookies collect data to enhance your experience and personalize the content and advertising you see.
Visit our Privacy Policy to learn more. By continuing to use the site, you agree to this use of cookies and data.
EN

Hourly Weather Barisal

Today, 9 July, Thursday

Time Temperature Precipitation Wind Pressure Humidity
00:00 +30°C° 0 mm 3 mps 752 mmHg 84%
01:00 +30°C° 2.3 mm 4 mps 752 mmHg 85%
02:00 +30°C° 2.3 mm 4 mps 751 mmHg 85%
03:00 +30°C° 2.3 mm 5 mps 751 mmHg 86%
04:00 +30°C° 2.2 mm 5 mps 751 mmHg 86%
05:00 +30°C° 2.2 mm 5 mps 750 mmHg 86%
06:00 +30°C° 0 mm 5 mps 751 mmHg 85%
07:00 +32°C° 2.1 mm 5 mps 751 mmHg 83%
08:00 +32°C° 2.1 mm 5 mps 751 mmHg 80%
09:00 +32°C° 2.1 mm 6 mps 751 mmHg 78%
10:00 +33°C° 0.5 mm 6 mps 751 mmHg 77%
11:00 +33°C° 0.5 mm 7 mps 751 mmHg 76%
12:00 +34°C° 0.5 mm 7 mps 751 mmHg 74%
13:00 +34°C° 0.1 mm 7 mps 750 mmHg 73%
14:00 +35°C° 0.1 mm 7 mps 750 mmHg 71%
15:00 +35°C° 0.1 mm 7 mps 749 mmHg 70%
16:00 +34°C° 0.3 mm 7 mps 749 mmHg 72%
17:00 +33°C° 0.3 mm 7 mps 749 mmHg 75%
18:00 +33°C° 0.3 mm 6 mps 749 mmHg 77%
19:00 +32°C° 0 mm 6 mps 749 mmHg 79%
20:00 +32°C° 0 mm 5 mps 750 mmHg 81%
21:00 +30°C° 0 mm 5 mps 750 mmHg 83%
22:00 +30°C° 0.1 mm 5 mps 750 mmHg 84%
23:00 +30°C° 0.1 mm 5 mps 750 mmHg 84%

Tomorrow, 10 July, Friday

Time Temperature Precipitation Wind Pressure Humidity
00:00 +30°C° 0.1 mm 6 mps 750 mmHg 84%
01:00 +30°C° 0.4 mm 6 mps 750 mmHg 84%
02:00 +30°C° 0.4 mm 6 mps 749 mmHg 84%
03:00 +30°C° 0.4 mm 6 mps 749 mmHg 84%
04:00 +30°C° 0.1 mm 6 mps 749 mmHg 84%
05:00 +30°C° 0.1 mm 6 mps 749 mmHg 84%
06:00 +30°C° 0.1 mm 5 mps 749 mmHg 84%
07:00 +32°C° 0.6 mm 6 mps 750 mmHg 81%
08:00 +33°C° 0.6 mm 7 mps 750 mmHg 77%
09:00 +33°C° 0.6 mm 8 mps 751 mmHg 73%
10:00 +34°C° 0.3 mm 8 mps 751 mmHg 71%
11:00 +35°C° 0.3 mm 8 mps 750 mmHg 69%
12:00 +35°C° 0.3 mm 8 mps 750 mmHg 67%
13:00 +35°C° 0.2 mm 8 mps 750 mmHg 67%
14:00 +35°C° 0.2 mm 8 mps 749 mmHg 67%
15:00 +35°C° 0.2 mm 8 mps 748 mmHg 67%
16:00 +34°C° 0 mm 8 mps 748 mmHg 70%
17:00 +34°C° 0 mm 7 mps 748 mmHg 73%
18:00 +33°C° 0 mm 7 mps 748 mmHg 76%
19:00 +33°C° 0 mm 6 mps 749 mmHg 78%
20:00 +32°C° 0 mm 6 mps 749 mmHg 80%
21:00 +32°C° 0 mm 6 mps 750 mmHg 82%
22:00 +32°C° 0.1 mm 6 mps 750 mmHg 82%
23:00 +32°C° 0.1 mm 6 mps 750 mmHg 82%

Day after tomorrow, 11 July, Saturday

Time Temperature Precipitation Wind Pressure Humidity
00:00 +32°C° 0.1 mm 7 mps 749 mmHg 82%
01:00 +30°C° 0.3 mm 7 mps 749 mmHg 82%
02:00 +30°C° 0.3 mm 7 mps 748 mmHg 83%
03:00 +30°C° 0.3 mm 7 mps 748 mmHg 83%
04:00 +30°C° 0 mm 7 mps 748 mmHg 82%
05:00 +30°C° 0 mm 6 mps 748 mmHg 82%
06:00 +30°C° 0 mm 6 mps 749 mmHg 81%
07:00 +32°C° 0.2 mm 7 mps 749 mmHg 78%
08:00 +33°C° 0.2 mm 8 mps 749 mmHg 75%
09:00 +34°C° 0.2 mm 9 mps 749 mmHg 72%
10:00 +34°C° 1.5 mm 8 mps 749 mmHg 73%
11:00 +34°C° 1.5 mm 8 mps 749 mmHg 73%
12:00 +34°C° 1.5 mm 8 mps 749 mmHg 74%
13:00 +34°C° 1.1 mm 7 mps 749 mmHg 74%
14:00 +34°C° 1.1 mm 6 mps 748 mmHg 74%
15:00 +33°C° 1.1 mm 6 mps 748 mmHg 75%
16:00 +33°C° 2 mm 5 mps 748 mmHg 77%
17:00 +32°C° 2 mm 5 mps 748 mmHg 80%
18:00 +32°C° 2 mm 4 mps 748 mmHg 82%
19:00 +32°C° 0.5 mm 4 mps 749 mmHg 83%
20:00 +30°C° 0.5 mm 4 mps 749 mmHg 84%
21:00 +30°C° 0.5 mm 4 mps 750 mmHg 85%
22:00 +30°C° 0.3 mm 4 mps 749 mmHg 85%
23:00 +30°C° 0.3 mm 4 mps 749 mmHg 86%

12 July, Sunday

Time Temperature Precipitation Wind Pressure Humidity
00:00 +30°C° 0.3 mm 4 mps 749 mmHg 86%
01:00 +30°C° 1.2 mm 4 mps 749 mmHg 85%
02:00 +30°C° 1.2 mm 4 mps 749 mmHg 85%
03:00 +30°C° 1.2 mm 5 mps 748 mmHg 84%
04:00 +29°C° 2.2 mm 5 mps 749 mmHg 86%
05:00 +29°C° 2.2 mm 5 mps 749 mmHg 88%
06:00 +29°C° 2.2 mm 5 mps 749 mmHg 90%
07:00 +29°C° 1.9 mm 5 mps 750 mmHg 89%
08:00 +29°C° 1.9 mm 5 mps 750 mmHg 88%
09:00 +29°C° 1.9 mm 5 mps 751 mmHg 87%
10:00 +29°C° 2 mm 5 mps 751 mmHg 88%
11:00 +29°C° 2 mm 4 mps 751 mmHg 88%
12:00 +29°C° 2 mm 4 mps 751 mmHg 89%
13:00 +29°C° 2 mm 4 mps 751 mmHg 90%
14:00 +28°C° 2 mm 4 mps 751 mmHg 91%
15:00 +28°C° 2 mm 3 mps 750 mmHg 92%
16:00 +28°C° 0.5 mm 3 mps 751 mmHg 92%
17:00 +28°C° 0.5 mm 3 mps 751 mmHg 92%
18:00 +28°C° 0.5 mm 3 mps 751 mmHg 92%
19:00 +28°C° 0 mm 2 mps 751 mmHg 92%
20:00 +28°C° 0 mm 2 mps 752 mmHg 92%
21:00 +28°C° 0 mm 1 mps 752 mmHg 93%
22:00 +28°C° 0.1 mm 1 mps 752 mmHg 92%
23:00 +28°C° 0.1 mm 1 mps 752 mmHg 91%

13 July, Monday

Time Temperature Precipitation Wind Pressure Humidity
00:00 +28°C° 0.1 mm 1 mps 751 mmHg 90%
01:00 +28°C° 0.2 mm 1 mps 751 mmHg 89%
02:00 +28°C° 0.2 mm 1 mps 751 mmHg 88%
03:00 +28°C° 0.2 mm 1 mps 750 mmHg 87%
04:00 +29°C° 0.6 mm 1 mps 751 mmHg 87%
05:00 +29°C° 0.6 mm 1 mps 751 mmHg 86%
06:00 +29°C° 0.6 mm 2 mps 751 mmHg 86%
07:00 +29°C° 1 mm 2 mps 751 mmHg 86%
08:00 +29°C° 1 mm 2 mps 752 mmHg 86%
09:00 +29°C° 1 mm 2 mps 752 mmHg 86%
10:00 +29°C° 1.1 mm 2 mps 752 mmHg 88%
11:00 +28°C° 1.1 mm 3 mps 752 mmHg 89%
12:00 +28°C° 1.1 mm 3 mps 753 mmHg 90%
13:00 +28°C° 0.4 mm 2 mps 752 mmHg 89%
14:00 +28°C° 0.4 mm 2 mps 752 mmHg 89%
15:00 +28°C° 0.4 mm 1 mps 752 mmHg 88%
16:00 +28°C° 0 mm 1 mps 752 mmHg 89%
17:00 +28°C° 0 mm 2 mps 752 mmHg 89%
18:00 +28°C° 0 mm 3 mps 752 mmHg 89%
19:00 +28°C° 0 mm 3 mps 752 mmHg 89%
20:00 +28°C° 0 mm 3 mps 752 mmHg 88%
21:00 +29°C° 0 mm 3 mps 753 mmHg 88%
22:00 +29°C° 0 mm 3 mps 753 mmHg 89%
23:00 +29°C° 0 mm 3 mps 753 mmHg 89%

14 July, Tuesday

Time Temperature Precipitation Wind Pressure Humidity
00:00 +29°C° 0 mm 3 mps 752 mmHg 90%
01:00 +29°C° 0.5 mm 3 mps 752 mmHg 90%
02:00 +29°C° 0.5 mm 3 mps 752 mmHg 90%
03:00 +29°C° 0.5 mm 3 mps 752 mmHg 91%
04:00 +29°C° 1.3 mm 3 mps 752 mmHg 89%
05:00 +29°C° 1.3 mm 3 mps 752 mmHg 88%
06:00 +29°C° 1.3 mm 3 mps 752 mmHg 87%
07:00 +29°C° 1.2 mm 3 mps 753 mmHg 86%
08:00 +29°C° 1.2 mm 3 mps 753 mmHg 84%
09:00 +30°C° 1.2 mm 4 mps 753 mmHg 83%
10:00 +30°C° 0.7 mm 4 mps 753 mmHg 82%
11:00 +30°C° 0.7 mm 4 mps 753 mmHg 80%
12:00 +32°C° 0.7 mm 4 mps 753 mmHg 79%
13:00 +30°C° 0 mm 4 mps 753 mmHg 80%
14:00 +30°C° 0 mm 3 mps 753 mmHg 81%
15:00 +30°C° 0 mm 3 mps 752 mmHg 82%
16:00 +30°C° 0 mm 3 mps 752 mmHg 84%
17:00 +30°C° 0 mm 2 mps 752 mmHg 85%
18:00 +29°C° 0 mm 2 mps 752 mmHg 87%
19:00 +29°C° 0 mm 2 mps 752 mmHg 87%
20:00 +29°C° 0 mm 2 mps 752 mmHg 88%
21:00 +29°C° 0 mm 2 mps 753 mmHg 89%
22:00 +29°C° 0.1 mm 3 mps 753 mmHg 89%
23:00 +29°C° 0.1 mm 3 mps 753 mmHg 89%
Show more